This demonstration page uses our WeatherBlox Daily Observations layout. Learn more.

Left ArrowRight Arrow

Hourly Observations for February 16, 2015

Temp ( °F °C ) Dew Point ( °F °C ) Humidity (%) Winds ( mph kmh ) Pressure ( in mb ) Visibility ( mi km ) Precip ( " mm )
12:53 am 00:53 Clear 40 4.4 23 -5 51 51 NNE 20 31 29.89 1012 10 16 0.00 0.00
1:53 am 01:53 Clear 39 3.9 19 -7.2 45 45 NNE 26 43 29.94 1014 10 16 0.00 0.00
2:53 am 02:53 Clear 37 2.8 19 -7.2 48 48 N 25 41 29.98 1015 10 16 0.00 0.00
3:19 am 03:19 Mostly Cloudy 37 2.8 21 -6.1 52 52 N 22 35 30.12 1020 10 16 0.00 0.00
3:53 am 03:53 Mostly Cloudy 37 2.8 20 -6.7 50 50 N 23 37 29.99 1016 10 16 0.00 0.00
4:44 am 04:44 Mostly Cloudy 37 3 19 -7 48 48 N 15 24 30.18 1022 10 16 0.00 0.00
4:53 am 04:53 Partly Cloudy 37 2.8 19 -7.2 48 48 N 18 30 30.04 1017 10 16 0.00 0.00
5:53 am 05:53 Clear 36 2.2 19 -7.2 50 50 N 16 26 30.06 1018 10 16 0.00 0.00
6:53 am 06:53 Mostly Clear 36 2.2 19 -7.2 50 50 N 12 19 30.08 1019 10 16 0.00 0.00
7:53 am 07:53 Cloudy 36 2.2 19 -7.2 50 50 N 10 17 30.10 1019 10 16 0.00 0.00
8:53 am 08:53 Cloudy 38 3.3 20 -6.7 48 48 N 12 19 30.11 1020 10 16 0.00 0.00
9:53 am 09:53 Cloudy 39 3.9 19 -7.2 45 45 N 13 20 30.12 1020 10 16 0.00 0.00
10:53 am 10:53 Mostly Cloudy 41 5 20 -6.7 43 43 N 12 19 30.15 1021 10 16 0.00 0.00
11:53 am 11:53 Cloudy 44 6.7 21 -6.1 40 40 N 8 13 30.14 1021 10 16 0.00 0.00
12:53 pm 12:53 Cloudy 48 8.9 22 -5.6 36 36 N 12 19 30.11 1020 10 16 0.00 0.00
1:53 pm 13:53 Cloudy 46 7.8 22 -5.6 38 38 N 8 13 30.06 1018 10 16 0.00 0.00
2:53 pm 14:53 Cloudy 47 8.3 22 -5.6 37 37 Calm 30.03 1017 10 16 0.00 0.00
3:53 pm 15:53 Cloudy 49 9.4 22 -5.6 35 35 NE 7 11 30.01 1016 10 16 0.00 0.00
4:53 pm 16:53 Partly Cloudy 50 10 22 -5.6 33 33 ENE 6 9 30.00 1016 10 16 0.00 0.00
5:53 pm 17:53 Cloudy 49 9.4 22 -5.6 35 35 E 9 15 30.00 1016 10 16 0.00 0.00
6:53 pm 18:53 Cloudy 48 8.9 23 -5 37 37 E 12 19 30.01 1016 10 16 0.00 0.00
7:53 pm 19:53 Mostly Clear 45 7.2 23 -5 42 42 E 13 20 30.00 1016 10 16 0.00 0.00
8:53 pm 20:53 Mostly Cloudy 43 6.1 23 -5 45 45 E 9 15 30.02 1017 10 16 0.00 0.00
9:53 pm 21:53 Cloudy 43 6.1 23 -5 45 45 ESE 13 20 30.02 1017 10 16 0.00 0.00
10:14 pm 22:14 Cloudy with Nearby Thunderstorms 43 6.1 23 -5 45 45 E 9 15 30.09 1019 10 16 0.00 0.00
10:42 pm 22:42 Cloudy with Heavy Rain 39 4 27 -3 61 61 NE 16 26 30.15 1021 5 8 0.00 0.00
10:51 pm 22:51 Cloudy with Light Snow 39 4 27 -3 61 61 NE 7 11 30.18 1022 7 11 0.03 0.76
10:53 pm 22:53 Cloudy with Light Snow 39 3.9 27 -2.8 62 62 ENE 9 15 30.11 1020 7 11 0.03 0.76
11:03 pm 23:03 Cloudy with Light Snow 37 3 28 -2 70 70 ENE 13 20 30.21 1023 5 8 0.00 0.00
11:53 pm 23:53 Cloudy with Light Snow 36 2.2 30 -1.1 79 79 E 18 30 30.11 1020 7 11 0.04 1.02

Powered by AerisWeather